WZZ1EL LRSB-LGIR

Flight info

Callsign WZZ1EL
Flight time N/A
Altitude 35000
Route IRLOX DCT TIMUR N181 NIKTI UY505 PEREN UV652 SKP UL617 KEA UL607 GIVIS T514 XAVIS
Aircraft A320/M-SDE3FGHIRWY/LB1

Departure

Time 2026-05-07 10:52
Airport Sibiu International Airport (LRSB)

Arrival

Time N/A
Airport Heraklion International Nikos Kazantzakis Airport (LGIR)
Time Latitude Longitude Altitude Speed Heading
2026-05-07 10:39 45.78848 24.09373 1463 ft 0 kts 357°
2026-05-07 10:45 45.78831 24.09374 1458 ft 3 kts
2026-05-07 10:45 45.78815 24.09365 1463 ft 3 kts 46°
2026-05-07 10:45 45.78805 24.09344 1459 ft 2 kts 82°
2026-05-07 10:46 45.78805 24.09328 1462 ft 0 kts 88°
2026-05-07 10:48 45.78805 24.09350 1461 ft 6 kts 89°
2026-05-07 10:49 45.78805 24.09455 1462 ft 15 kts 92°
2026-05-07 10:49 45.78802 24.09643 1460 ft 23 kts 91°
2026-05-07 10:49 45.78762 24.09799 1459 ft 11 kts 175°
2026-05-07 10:49 45.78682 24.09799 1458 ft 12 kts 180°
2026-05-07 10:50 45.78597 24.09809 1458 ft 13 kts 158°
2026-05-07 10:50 45.78562 24.09934 1459 ft 15 kts 91°
2026-05-07 10:50 45.78552 24.10081 1459 ft 14 kts 133°
2026-05-07 10:50 45.78534 24.10213 1458 ft 14 kts 64°
2026-05-07 10:51 45.78559 24.10222 1458 ft 0 kts 310°
2026-05-07 10:51 45.78561 24.10195 1458 ft 5 kts 275°
2026-05-07 10:51 45.78563 24.10146 1458 ft 7 kts 272°
2026-05-07 10:51 45.78570 24.09790 1460 ft 65 kts 271°
2026-05-07 10:52 45.78581 24.08889 1468 ft 114 kts 269°
2026-05-07 10:52 45.78619 24.07519 1667 ft 149 kts 274°
2026-05-07 10:52 45.78654 24.06064 2363 ft 145 kts 275°
2026-05-07 10:52 45.78701 24.04581 2729 ft 156 kts 273°
2026-05-07 10:53 45.78758 24.02954 2937 ft 170 kts 274°
2026-05-07 10:53 45.78821 24.01184 3159 ft 186 kts 273°
2026-05-07 10:53 45.78886 23.99248 3455 ft 203 kts 273°
2026-05-07 10:53 45.78956 23.97123 3715 ft 224 kts 272°
2026-05-07 10:54 45.79029 23.94813 4103 ft 241 kts 272°
2026-05-07 10:54 45.79106 23.92331 4564 ft 258 kts 272°
2026-05-07 10:54 45.79184 23.89717 5044 ft 275 kts 272°
2026-05-07 10:54 45.79266 23.86891 5548 ft 292 kts 272°
2026-05-07 10:55 45.79353 23.83932 6150 ft 300 kts 271°
2026-05-07 10:55 45.79492 23.80937 6935 ft 303 kts 279°
2026-05-07 10:55 45.80224 23.78102 7703 ft 308 kts 301°
2026-05-07 10:55 45.81651 23.75793 8385 ft 317 kts 322°
2026-05-07 10:56 45.83663 23.74346 8771 ft 333 kts 345°
2026-05-07 10:56 45.86019 23.74141 9143 ft 348 kts
2026-05-07 10:56 45.88309 23.75358 9637 ft 356 kts 34°
2026-05-07 10:56 45.90081 23.77808 10212 ft 358 kts 58°
2026-05-07 10:57 45.91011 23.81085 10820 ft 356 kts 83°
2026-05-07 10:57 45.91010 23.84618 11419 ft 355 kts 102°
2026-05-07 10:57 45.90239 23.87964 12014 ft 354 kts 120°
2026-05-07 10:57 45.88751 23.90758 12611 ft 354 kts 139°
2026-05-07 10:58 45.86697 23.92679 13219 ft 355 kts 158°
2026-05-07 10:58 45.84309 23.93537 13778 ft 357 kts 174°
2026-05-07 10:58 45.81822 23.93902 14289 ft 361 kts 174°
2026-05-07 10:58 45.79311 23.94258 14800 ft 364 kts 174°
2026-05-07 10:59 45.76785 23.94614 15332 ft 366 kts 174°
2026-05-07 10:59 45.74243 23.94979 15843 ft 369 kts 174°
2026-05-07 10:59 45.71676 23.95351 16354 ft 372 kts 174°
2026-05-07 10:59 45.69089 23.95726 16855 ft 375 kts 174°
2026-05-07 11:00 45.66483 23.96105 17405 ft 378 kts 174°
2026-05-07 11:00 45.63855 23.96488 17912 ft 381 kts 174°
2026-05-07 11:00 45.61198 23.96875 18424 ft 385 kts 174°
2026-05-07 11:00 45.58517 23.97266 18882 ft 389 kts 174°
2026-05-07 11:01 45.55812 23.97662 19324 ft 393 kts 174°
2026-05-07 11:01 45.53076 23.98067 19756 ft 398 kts 174°
2026-05-07 11:01 45.50305 23.98476 20185 ft 402 kts 175°
2026-05-07 11:01 45.47527 23.98882 20600 ft 406 kts 175°
2026-05-07 11:02 45.44676 23.99296 21026 ft 411 kts 175°
2026-05-07 11:02 45.41817 23.99707 21422 ft 415 kts 175°
2026-05-07 11:02 45.38928 24.00121 21813 ft 419 kts 175°
2026-05-07 11:02 45.36012 24.00540 22190 ft 423 kts 175°
2026-05-07 11:03 45.33103 24.00957 22546 ft 427 kts 175°
2026-05-07 11:03 45.30138 24.01381 22919 ft 430 kts 175°
2026-05-07 11:03 45.27144 24.01810 23311 ft 434 kts 175°
2026-05-07 11:03 45.24130 24.02240 23683 ft 436 kts 175°
2026-05-07 11:04 45.21099 24.02666 23985 ft 439 kts 175°
2026-05-07 11:04 45.18052 24.03093 24285 ft 441 kts 175°
2026-05-07 11:04 45.15001 24.03527 24595 ft 442 kts 175°
2026-05-07 11:04 45.11932 24.03967 24879 ft 445 kts 175°
2026-05-07 11:05 45.08843 24.04412 25167 ft 447 kts 175°
2026-05-07 11:05 45.05745 24.04855 25441 ft 449 kts 175°
2026-05-07 11:05 45.02625 24.05300 25723 ft 451 kts 175°
2026-05-07 11:05 44.99493 24.05744 26001 ft 454 kts 176°
2026-05-07 11:06 44.96340 24.06190 26277 ft 456 kts 176°
2026-05-07 11:06 44.93181 24.06640 26558 ft 458 kts 176°
2026-05-07 11:06 44.90003 24.07093 26834 ft 460 kts 176°
2026-05-07 11:06 44.86806 24.07545 27117 ft 462 kts 176°
2026-05-07 11:07 44.83599 24.08001 27382 ft 465 kts 176°
2026-05-07 11:07 44.80377 24.08456 27643 ft 467 kts 176°
2026-05-07 11:07 44.77138 24.08914 27896 ft 469 kts 176°
2026-05-07 11:07 44.73885 24.09373 28153 ft 471 kts 176°
2026-05-07 11:08 44.70617 24.09833 28404 ft 473 kts 176°
2026-05-07 11:08 44.67341 24.10294 28656 ft 475 kts 176°
2026-05-07 11:08 44.64045 24.10760 28892 ft 477 kts 176°
2026-05-07 11:08 44.60738 24.11228 29128 ft 479 kts 176°
2026-05-07 11:09 44.57414 24.11692 29360 ft 481 kts 176°
2026-05-07 11:09 44.54070 24.12157 29579 ft 483 kts 176°
2026-05-07 11:09 44.50720 24.12623 29785 ft 485 kts 176°
2026-05-07 11:09 44.47353 24.13091 29991 ft 487 kts 176°
2026-05-07 11:10 44.43976 24.13560 30173 ft 488 kts 176°
2026-05-07 11:10 44.40593 24.14031 30325 ft 490 kts 176°
2026-05-07 11:10 44.37192 24.14506 30461 ft 492 kts 176°
2026-05-07 11:10 44.33789 24.14982 30613 ft 493 kts 176°
2026-05-07 11:11 44.30366 24.15461 30741 ft 494 kts 176°
2026-05-07 11:11 44.26944 24.15938 30863 ft 495 kts 176°
2026-05-07 11:11 44.23510 24.16411 30981 ft 496 kts 176°
2026-05-07 11:11 44.20071 24.16885 31104 ft 497 kts 176°
2026-05-07 11:12 44.16629 24.17359 31225 ft 498 kts 176°
2026-05-07 11:12 44.13181 24.17833 31351 ft 498 kts 176°
2026-05-07 11:12 44.09729 24.18309 31460 ft 499 kts 176°
2026-05-07 11:12 44.06274 24.18787 31587 ft 499 kts 176°
2026-05-07 11:13 44.02822 24.19263 31710 ft 499 kts 176°
2026-05-07 11:13 43.99403 24.19738 31832 ft 499 kts 176°
2026-05-07 11:13 43.95900 24.20223 31955 ft 500 kts 176°
2026-05-07 11:13 43.92441 24.20698 32082 ft 500 kts 176°
2026-05-07 11:14 43.88986 24.21170 32210 ft 500 kts 177°
2026-05-07 11:14 43.85517 24.21642 32338 ft 500 kts 177°
2026-05-07 11:14 43.82059 24.22114 32464 ft 500 kts 177°
2026-05-07 11:14 43.78591 24.22590 32594 ft 500 kts 177°
2026-05-07 11:15 43.75128 24.23067 32723 ft 500 kts 177°
2026-05-07 11:15 43.71665 24.23539 32852 ft 500 kts 177°
2026-05-07 11:15 43.68249 24.23884 32977 ft 498 kts 183°
2026-05-07 11:15 43.64750 24.23788 33116 ft 496 kts 184°
2026-05-07 11:16 43.61289 24.23670 33240 ft 496 kts 184°
2026-05-07 11:16 43.57885 24.23557 33376 ft 497 kts 184°
2026-05-07 11:16 43.54430 24.23446 33502 ft 496 kts 184°
2026-05-07 11:16 43.50976 24.23342 33632 ft 496 kts 184°
2026-05-07 11:17 43.47530 24.23238 33773 ft 496 kts 184°
2026-05-07 11:17 43.44076 24.23131 33907 ft 496 kts 184°
2026-05-07 11:17 43.40623 24.23022 34029 ft 496 kts 184°
2026-05-07 11:17 43.37179 24.22911 34165 ft 496 kts 184°
2026-05-07 11:18 43.33731 24.22801 34280 ft 495 kts 184°
2026-05-07 11:18 43.30282 24.22692 34399 ft 495 kts 184°
2026-05-07 11:18 43.26837 24.22584 34513 ft 495 kts 184°
2026-05-07 11:18 43.23397 24.22477 34638 ft 495 kts 184°
2026-05-07 11:19 43.19957 24.22374 34758 ft 495 kts 184°
2026-05-07 11:19 43.16512 24.22271 34882 ft 494 kts 184°
2026-05-07 11:19 43.13082 24.22164 35025 ft 494 kts 184°
2026-05-07 11:19 43.09640 24.22057 35080 ft 495 kts 184°
2026-05-07 11:20 43.02747 24.21713 35086 ft 495 kts 186°
2026-05-07 11:20 42.95881 24.21196 35089 ft 494 kts 186°
2026-05-07 11:21 42.89024 24.20687 35091 ft 494 kts 186°
2026-05-07 11:21 42.82163 24.20238 35100 ft 493 kts 186°
2026-05-07 11:22 42.75306 24.19821 35098 ft 493 kts 186°
2026-05-07 11:22 42.68454 24.19395 35107 ft 493 kts 186°
2026-05-07 11:23 42.61613 24.18943 35108 ft 493 kts 186°
2026-05-07 11:23 42.54805 24.18494 35113 ft 492 kts 186°
2026-05-07 11:24 42.47961 24.18050 35110 ft 492 kts 186°
2026-05-07 11:24 42.41120 24.17624 35109 ft 492 kts 186°
2026-05-07 11:25 42.34366 24.17201 35702 ft 466 kts 186°
2026-05-07 11:25 42.31185 24.17029 36645 ft 437 kts 186°
2026-05-07 11:25 42.28224 24.16866 37703 ft 415 kts 186°
2026-05-07 11:26 42.25417 24.16698 38330 ft 407 kts 186°
2026-05-07 11:26 42.22571 24.16523 38082 ft 412 kts 186°
2026-05-07 11:26 42.19823 24.16364 39076 ft 384 kts 186°
2026-05-07 11:26 42.17111 24.16211 38760 ft 395 kts 186°
2026-05-07 11:27 42.11572 24.15870 38595 ft 402 kts 186°
2026-05-07 11:27 42.05953 24.15444 38004 ft 413 kts 187°
2026-05-07 11:28 42.03029 24.15209 36886 ft 427 kts 187°
2026-05-07 11:28 42.00029 24.14985 35877 ft 436 kts 187°
2026-05-07 11:28 41.96990 24.14782 35341 ft 435 kts 187°
2026-05-07 11:28 41.93964 24.14596 35126 ft 439 kts 187°
2026-05-07 11:29 41.87824 24.14227 35121 ft 442 kts 186°
2026-05-07 11:29 41.81676 24.13857 35122 ft 442 kts 187°
2026-05-07 11:30 41.75524 24.13476 35123 ft 443 kts 186°
2026-05-07 11:30 41.69426 24.13090 35122 ft 442 kts 187°
2026-05-07 11:31 41.63223 24.12696 35132 ft 443 kts 187°
2026-05-07 11:31 41.57109 24.12315 35126 ft 443 kts 186°
2026-05-07 11:32 41.47925 24.11275 35133 ft 440 kts 191°
2026-05-07 11:33 41.42843 24.10318 35137 ft 440 kts 192°
2026-05-07 11:33 41.36772 24.09192 35139 ft 440 kts 191°
2026-05-07 11:34 41.30692 24.08160 35132 ft 441 kts 191°
2026-05-07 11:34 41.24630 24.07182 35138 ft 441 kts 191°
2026-05-07 11:35 41.18543 24.06182 35135 ft 441 kts 191°
2026-05-07 11:35 41.12448 24.05165 35138 ft 441 kts 191°
2026-05-07 11:36 41.06354 24.04158 35145 ft 441 kts 191°
2026-05-07 11:36 41.00255 24.03166 35142 ft 442 kts 191°
2026-05-07 11:37 40.94142 24.02194 35143 ft 442 kts 191°
2026-05-07 11:37 40.88032 24.01236 35148 ft 442 kts 191°
2026-05-07 11:38 40.81916 24.00274 35145 ft 443 kts 191°
2026-05-07 11:38 40.75796 23.99310 35150 ft 443 kts 191°
2026-05-07 11:39 40.69674 23.98348 35152 ft 443 kts 191°
2026-05-07 11:39 40.63556 23.97382 35152 ft 443 kts 191°
2026-05-07 11:40 40.57446 23.96346 35149 ft 442 kts 193°
2026-05-07 11:40 40.51408 23.94860 35151 ft 441 kts 196°
2026-05-07 11:41 40.45450 23.93216 35147 ft 441 kts 195°
2026-05-07 11:41 40.39436 23.91625 35149 ft 441 kts 195°
2026-05-07 11:42 40.33392 23.90107 35149 ft 442 kts 195°
2026-05-07 11:42 40.27349 23.88614 35149 ft 442 kts 195°
2026-05-07 11:43 40.21318 23.87106 35150 ft 441 kts 195°
2026-05-07 11:43 40.15283 23.85579 35152 ft 441 kts 195°
2026-05-07 11:44 40.09251 23.84068 35152 ft 441 kts 195°
2026-05-07 11:44 40.03222 23.82572 35148 ft 441 kts 195°
2026-05-07 11:45 39.97194 23.81075 35145 ft 441 kts 195°
2026-05-07 11:45 39.91156 23.79578 35149 ft 442 kts 195°
2026-05-07 11:46 39.85110 23.78081 35147 ft 442 kts 195°
2026-05-07 11:46 39.79068 23.76585 35151 ft 442 kts 195°
2026-05-07 11:47 39.73017 23.75078 35144 ft 443 kts 195°
2026-05-07 11:47 39.66958 23.73581 35146 ft 443 kts 194°
2026-05-07 11:48 39.60892 23.72084 35143 ft 444 kts 194°
2026-05-07 11:48 39.54819 23.70582 35142 ft 444 kts 194°
2026-05-07 11:49 39.48743 23.69083 35139 ft 445 kts 194°